Forside
METAR-TAF:

METAR-TAF

Lufthavne :

Holland, Michigan, USA

Breddekreds: 42-44-46N, længdekreds: 086-05-48W, højde: 209 m

Aktuelle vejr

Denne rapport blev lavet for 28 minutter siden, kl. 18:53 UTC
Vind 9 kt fra vestnordvest
Temperatur 7°C
Fugtighed 45%
Tryk 1025 hPa
Sigt: 16.1 km
skyfri

METAR: KBIV 021853Z AUTO 29009KT 10SM CLR 07/M04 A3026 RMK AO2 SLP253 T00671044

Tid: 14:21 (19:21 UTC)


TAF: fraværende

Vejrobservationer og prognoser fra mere end 4000 lufthavne (METAR og TAF).

De gule og røde prikker repræsenterer de meteorologiske stationer.

Flyt musen over at se navnet på stationen.

Så klik over at se vejr observationer og prognoser.

At skifte det kort: Klik på de grønne knapper med et sort kors for at zoome ind; på den grønne knap med en bindestreg for at zoome ud; eller på de grønne pile for tilstødende kort.


METAR-TAF: